Time,TemperatureF,DewpointF,PressureIn,WindDirection,WindDirectionDegrees,WindSpeedMPH,WindSpeedGustMPH,Humidity,HourlyPrecipIn,Conditions,Clouds,dailyrainin,SoftwareType,DateUTC
2013-09-08 00:01:00,58.6,46.5,0.00,SSW,213,0.0,0.0,64,0.00,,---,0.00,VWS V14.01,2013-09-08 04:01:00,
2013-09-08 00:06:00,58.6,46.5,0.00,SE,137,0.0,0.0,64,0.00,,---,0.00,VWS V14.01,2013-09-08 04:06:00,
2013-09-08 00:11:00,58.6,46.5,0.00,SW,231,0.0,0.0,64,0.00,,---,0.00,VWS V14.01,2013-09-08 04:11:00,
2013-09-08 00:16:00,58.6,46.9,0.00,NE,53,0.0,0.0,65,0.00,,---,0.00,VWS V14.01,2013-09-08 04:16:00,
2013-09-08 00:21:00,58.6,46.9,0.00,North,8,0.0,0.0,65,0.00,,---,0.00,VWS V14.01,2013-09-08 04:21:00,
2013-09-08 00:26:00,58.5,46.8,0.00,SW,222,0.0,0.0,65,0.00,,---,0.00,VWS V14.01,2013-09-08 04:26:00,
2013-09-08 00:31:00,58.5,47.2,0.00,SSW,205,0.0,0.0,66,0.00,,---,0.00,VWS V14.01,2013-09-08 04:31:00,
2013-09-08 00:36:00,58.5,47.2,0.00,SSW,211,0.0,0.0,66,0.00,,---,0.00,VWS V14.01,2013-09-08 04:36:00,
2013-09-08 00:41:00,58.6,47.3,0.00,SSW,211,0.0,0.0,66,0.00,,---,0.00,VWS V14.01,2013-09-08 04:41:00,
2013-09-08 00:46:00,58.6,47.7,0.00,SSW,211,0.0,0.0,67,0.00,,---,0.00,VWS V14.01,2013-09-08 04:46:00,
2013-09-08 00:51:00,58.6,47.7,0.00,SSW,211,0.0,0.0,67,0.00,,---,0.00,VWS V14.01,2013-09-08 04:51:00,
2013-09-08 00:56:00,58.6,47.7,0.00,SSW,211,0.0,0.0,67,0.00,,---,0.00,VWS V14.01,2013-09-08 04:56:00,
2013-09-08 01:01:00,58.6,47.7,0.00,SSW,211,0.0,0.0,67,0.00,,---,0.00,VWS V14.01,2013-09-08 05:01:00,
2013-09-08 01:06:00,58.5,47.6,0.00,SSW,211,0.0,0.0,67,0.00,,---,0.00,VWS V14.01,2013-09-08 05:06:00,
2013-09-08 01:11:00,58.5,48.0,0.00,SSW,211,0.0,0.0,68,0.00,,---,0.00,VWS V14.01,2013-09-08 05:11:00,
2013-09-08 01:16:00,58.5,48.0,0.00,SSW,211,0.0,0.0,68,0.00,,---,0.00,VWS V14.01,2013-09-08 05:16:00,
2013-09-08 01:21:00,58.5,48.0,0.00,SSW,211,0.0,0.0,68,0.00,,---,0.00,VWS V14.01,2013-09-08 05:21:00,
2013-09-08 01:26:00,58.5,48.0,0.00,SSW,211,0.0,0.0,68,0.00,,---,0.00,VWS V14.01,2013-09-08 05:26:00,
2013-09-08 01:31:00,58.5,48.0,0.00,SSW,211,0.0,0.0,68,0.00,,---,0.00,VWS V14.01,2013-09-08 05:31:00,
2013-09-08 01:36:00,58.5,48.0,0.00,SSW,211,0.0,0.0,68,0.00,,---,0.00,VWS V14.01,2013-09-08 05:36:00,
2013-09-08 01:41:00,58.5,48.3,0.00,SSW,211,0.0,0.0,69,0.00,,---,0.00,VWS V14.01,2013-09-08 05:41:00,
2013-09-08 01:46:00,58.3,48.2,0.00,SSW,211,0.0,0.0,69,0.00,,---,0.00,VWS V14.01,2013-09-08 05:46:00,
2013-09-08 01:51:00,58.3,48.2,0.00,SSW,211,0.0,0.0,69,0.00,,---,0.00,VWS V14.01,2013-09-08 05:51:00,
2013-09-08 01:56:00,58.3,48.2,0.00,SSW,211,0.0,0.0,69,0.00,,---,0.00,VWS V14.01,2013-09-08 05:56:00,
2013-09-08 02:01:00,58.3,48.5,0.00,SSW,211,0.0,0.0,70,0.00,,---,0.00,VWS V14.01,2013-09-08 06:01:00,
2013-09-08 02:06:00,58.3,48.5,0.00,SSW,211,0.0,0.0,70,0.00,,---,0.00,VWS V14.01,2013-09-08 06:06:00,
2013-09-08 02:11:00,58.3,48.5,0.00,SSW,211,0.0,0.0,70,0.00,,---,0.00,VWS V14.01,2013-09-08 06:11:00,
2013-09-08 02:16:00,58.3,48.5,0.00,SSW,211,0.0,0.0,70,0.00,,---,0.00,VWS V14.01,2013-09-08 06:16:00,
2013-09-08 02:21:00,58.3,48.9,0.00,SSW,211,0.0,0.0,71,0.00,,---,0.00,VWS V14.01,2013-09-08 06:21:00,
2013-09-08 02:26:00,58.3,48.9,0.00,SSW,211,0.0,0.0,71,0.00,,---,0.00,VWS V14.01,2013-09-08 06:26:00,
2013-09-08 02:31:00,58.3,48.9,0.00,SSW,211,0.0,0.0,71,0.00,,---,0.00,VWS V14.01,2013-09-08 06:31:00,
2013-09-08 02:36:00,58.3,48.9,0.00,SSW,211,0.0,0.0,71,0.00,,---,0.00,VWS V14.01,2013-09-08 06:36:00,
2013-09-08 02:41:00,58.3,49.3,0.00,SSW,211,0.0,0.0,72,0.00,,---,0.00,VWS V14.01,2013-09-08 06:41:00,
2013-09-08 02:46:00,58.5,49.5,0.00,SSW,211,0.0,0.0,72,0.00,,---,0.00,VWS V14.01,2013-09-08 06:46:00,
2013-09-08 02:51:00,58.5,49.5,0.00,SSW,211,0.0,0.0,72,0.00,,---,0.00,VWS V14.01,2013-09-08 06:51:00,
2013-09-08 02:56:00,58.5,49.5,0.00,SSW,211,0.0,0.0,72,0.00,,---,0.00,VWS V14.01,2013-09-08 06:56:00,
2013-09-08 03:01:00,58.5,49.8,0.00,SSW,211,0.0,0.0,73,0.00,,---,0.00,VWS V14.01,2013-09-08 07:01:00,
2013-09-08 03:06:00,58.5,49.8,0.00,SSW,211,0.0,0.0,73,0.00,,---,0.00,VWS V14.01,2013-09-08 07:06:00,
2013-09-08 03:11:00,58.5,49.8,0.00,SSW,211,0.0,0.0,73,0.00,,---,0.00,VWS V14.01,2013-09-08 07:11:00,
2013-09-08 03:16:00,58.5,49.8,0.00,SSW,211,0.0,0.0,73,0.00,,---,0.00,VWS V14.01,2013-09-08 07:16:00,
2013-09-08 03:21:00,58.5,49.8,0.00,SSW,211,0.0,0.0,73,0.00,,---,0.00,VWS V14.01,2013-09-08 07:21:00,
2013-09-08 03:26:00,58.5,49.8,0.00,SSW,211,0.0,0.0,73,0.00,,---,0.00,VWS V14.01,2013-09-08 07:26:00,
2013-09-08 03:31:00,58.5,50.2,0.00,SSW,211,0.0,0.0,74,0.00,,---,0.00,VWS V14.01,2013-09-08 07:31:00,
2013-09-08 03:36:00,58.5,50.2,0.00,SSW,211,0.0,0.0,74,0.00,,---,0.00,VWS V14.01,2013-09-08 07:36:00,
2013-09-08 03:41:00,58.5,50.2,0.00,SSW,211,0.0,0.0,74,0.00,,---,0.00,VWS V14.01,2013-09-08 07:41:00,
2013-09-08 03:46:00,58.5,50.2,0.00,SSW,211,0.0,0.0,74,0.00,,---,0.00,VWS V14.01,2013-09-08 07:46:00,
2013-09-08 03:51:00,58.5,50.2,0.00,SSW,211,0.0,0.0,74,0.00,,---,0.00,VWS V14.01,2013-09-08 07:51:00,
2013-09-08 03:56:00,58.6,50.4,0.00,SSW,211,0.0,0.0,74,0.00,,---,0.00,VWS V14.01,2013-09-08 07:56:00,
2013-09-08 04:01:00,58.6,50.8,0.00,SSW,211,0.0,0.0,75,0.00,,---,0.00,VWS V14.01,2013-09-08 08:01:00,
2013-09-08 04:06:00,58.6,50.8,0.00,SSW,211,0.0,0.0,75,0.00,,---,0.00,VWS V14.01,2013-09-08 08:06:00,
2013-09-08 04:11:00,58.6,50.8,0.00,SSW,211,0.0,0.0,75,0.00,,---,0.00,VWS V14.01,2013-09-08 08:11:00,
2013-09-08 04:16:00,58.6,51.1,0.00,SSW,211,0.0,0.0,76,0.00,,---,0.00,VWS V14.01,2013-09-08 08:16:00,
2013-09-08 04:21:00,58.8,51.3,0.00,SSW,211,0.0,0.0,76,0.00,,---,0.00,VWS V14.01,2013-09-08 08:21:00,
2013-09-08 04:26:00,58.8,51.3,0.00,SSW,211,0.0,0.0,76,0.00,,---,0.00,VWS V14.01,2013-09-08 08:26:00,
2013-09-08 04:31:00,58.8,51.3,0.00,SSW,211,0.0,0.0,76,0.00,,---,0.00,VWS V14.01,2013-09-08 08:31:00,
2013-09-08 04:36:00,59.0,51.5,0.00,SSW,211,0.0,0.0,76,0.00,,---,0.00,VWS V14.01,2013-09-08 08:36:00,
2013-09-08 04:41:00,59.0,51.5,0.00,SSW,210,0.0,0.0,76,0.00,,---,0.00,VWS V14.01,2013-09-08 08:41:00,
2013-09-08 04:46:00,59.0,51.8,0.00,SSW,210,0.0,0.0,77,0.00,,---,0.00,VWS V14.01,2013-09-08 08:46:00,
2013-09-08 04:51:00,59.2,52.0,0.00,SSW,210,0.0,0.0,77,0.00,,---,0.00,VWS V14.01,2013-09-08 08:51:00,
2013-09-08 04:56:00,59.2,52.0,0.00,SE,135,0.0,0.0,77,0.00,,---,0.00,VWS V14.01,2013-09-08 08:56:00,
2013-09-08 05:01:00,59.2,52.0,0.00,NW,323,0.0,0.0,77,0.00,,---,0.00,VWS V14.01,2013-09-08 09:01:00,
2013-09-08 05:06:00,59.4,52.5,0.00,ESE,106,0.0,0.0,78,0.00,,---,0.00,VWS V14.01,2013-09-08 09:06:00,
2013-09-08 05:11:00,59.4,52.5,0.00,SE,131,2.7,2.7,78,0.00,,---,0.00,VWS V14.01,2013-09-08 09:11:00,
2013-09-08 05:16:00,59.4,52.5,0.00,NE,39,0.0,2.7,78,0.00,,---,0.00,VWS V14.01,2013-09-08 09:16:00,
2013-09-08 05:21:00,59.4,52.9,0.00,West,276,0.0,0.0,79,0.00,,---,0.00,VWS V14.01,2013-09-08 09:21:00,
2013-09-08 05:26:00,59.5,53.0,0.00,WNW,288,0.0,0.0,79,0.00,,---,0.00,VWS V14.01,2013-09-08 09:26:00,
2013-09-08 05:31:00,59.2,52.7,0.00,WSW,254,0.0,0.0,79,0.00,,---,0.00,VWS V14.01,2013-09-08 09:31:00,
2013-09-08 05:36:00,58.6,52.2,0.00,WNW,285,0.0,0.0,79,0.00,,---,0.00,VWS V14.01,2013-09-08 09:36:00,
2013-09-08 05:41:00,57.9,51.5,0.00,ENE,69,0.0,4.0,79,0.00,,---,0.00,VWS V14.01,2013-09-08 09:41:00,
2013-09-08 05:46:00,57.4,50.6,0.00,WNW,288,2.7,4.0,78,0.00,,---,0.00,VWS V14.01,2013-09-08 09:46:00,
2013-09-08 05:51:00,56.7,49.9,0.00,NNW,341,3.1,3.1,78,0.00,,---,0.00,VWS V14.01,2013-09-08 09:51:00,
2013-09-08 05:56:00,56.5,49.7,0.00,WNW,289,0.0,0.0,78,0.00,,---,0.00,VWS V14.01,2013-09-08 09:56:00,
2013-09-08 06:01:00,56.1,49.4,0.00,WNW,289,0.0,0.0,78,0.00,,---,0.00,VWS V14.01,2013-09-08 10:01:00,
2013-09-08 06:06:00,55.8,48.7,0.00,NE,54,0.0,0.0,77,0.00,,---,0.00,VWS V14.01,2013-09-08 10:06:00,
2013-09-08 06:11:00,55.4,48.3,0.00,SW,236,0.0,0.0,77,0.00,,---,0.00,VWS V14.01,2013-09-08 10:11:00,
2013-09-08 06:16:00,55.0,48.0,0.00,SE,138,0.0,0.0,77,0.00,,---,0.00,VWS V14.01,2013-09-08 10:16:00,
2013-09-08 06:21:00,54.9,47.8,0.00,NW,305,0.0,0.0,77,0.00,,---,0.00,VWS V14.01,2013-09-08 10:21:00,
2013-09-08 06:26:00,54.5,47.5,0.00,NW,305,0.0,0.0,77,0.00,,---,0.00,VWS V14.01,2013-09-08 10:26:00,
2013-09-08 06:31:00,54.3,47.3,0.00,WNW,299,0.0,0.0,77,0.00,,---,0.00,VWS V14.01,2013-09-08 10:31:00,
2013-09-08 06:36:00,54.1,46.8,0.00,SE,142,3.1,3.1,76,0.00,,---,0.00,VWS V14.01,2013-09-08 10:36:00,
2013-09-08 06:41:00,54.1,46.8,0.00,SSE,151,4.5,4.5,76,0.00,,---,0.00,VWS V14.01,2013-09-08 10:41:00,
2013-09-08 06:46:00,53.8,46.4,0.00,WSW,256,0.0,0.0,76,0.00,,---,0.00,VWS V14.01,2013-09-08 10:46:00,
2013-09-08 06:52:00,54.0,46.6,0.00,WSW,256,0.0,0.0,76,0.00,,---,0.00,VWS V14.01,2013-09-08 10:52:00,
2013-09-08 06:57:00,54.0,46.6,0.00,South,178,0.0,0.0,76,0.00,,---,0.00,VWS V14.01,2013-09-08 10:57:00,
2013-09-08 07:02:00,53.6,45.9,0.00,SW,232,0.0,0.0,75,0.00,,---,0.00,VWS V14.01,2013-09-08 11:02:00,
2013-09-08 07:07:00,53.6,45.9,0.00,SW,232,0.0,0.0,75,0.00,,---,0.00,VWS V14.01,2013-09-08 11:07:00,
2013-09-08 07:12:00,53.8,46.0,0.00,SW,232,0.0,0.0,75,0.00,,---,0.00,VWS V14.01,2013-09-08 11:12:00,
2013-09-08 07:17:00,53.8,46.0,0.00,SW,227,0.0,0.0,75,0.00,,---,0.00,VWS V14.01,2013-09-08 11:17:00,
2013-09-08 07:22:00,53.6,45.9,0.00,West,272,0.0,0.0,75,0.00,,---,0.00,VWS V14.01,2013-09-08 11:22:00,
2013-09-08 07:27:00,53.4,45.7,0.00,WSW,239,0.0,3.1,75,0.00,,---,0.00,VWS V14.01,2013-09-08 11:27:00,
2013-09-08 07:32:00,53.2,45.5,0.00,West,265,0.0,0.0,75,0.00,,---,0.00,VWS V14.01,2013-09-08 11:32:00,
2013-09-08 07:37:00,53.1,45.4,0.00,ESE,106,0.0,0.0,75,0.00,,---,0.00,VWS V14.01,2013-09-08 11:37:00,
2013-09-08 07:42:00,53.1,45.4,0.00,East,91,0.0,0.0,75,0.00,,---,0.00,VWS V14.01,2013-09-08 11:42:00,
2013-09-08 07:47:00,53.1,45.4,0.00,East,98,0.0,0.0,75,0.00,,---,0.00,VWS V14.01,2013-09-08 11:47:00,
2013-09-08 07:52:00,53.1,45.4,0.00,East,98,0.0,0.0,75,0.00,,---,0.00,VWS V14.01,2013-09-08 11:52:00,
2013-09-08 07:57:00,53.1,45.4,0.00,SW,229,0.0,0.0,75,0.00,,---,0.00,VWS V14.01,2013-09-08 11:57:00,
2013-09-08 08:02:00,53.1,45.4,0.00,SW,229,0.0,0.0,75,0.00,,---,0.00,VWS V14.01,2013-09-08 12:02:00,
2013-09-08 08:07:00,53.1,45.4,0.00,SW,229,0.0,0.0,75,0.00,,---,0.00,VWS V14.01,2013-09-08 12:07:00,
2013-09-08 08:12:00,53.1,45.4,0.00,West,279,0.0,0.0,75,0.00,,---,0.00,VWS V14.01,2013-09-08 12:12:00,
2013-09-08 08:17:00,53.2,45.5,0.00,West,279,0.0,0.0,75,0.00,,---,0.00,VWS V14.01,2013-09-08 12:17:00,
2013-09-08 08:22:00,53.2,45.5,0.00,SE,132,0.0,0.0,75,0.00,,---,0.00,VWS V14.01,2013-09-08 12:22:00,
2013-09-08 08:27:00,53.1,45.0,0.00,East,90,0.0,0.0,74,0.00,,---,0.00,VWS V14.01,2013-09-08 12:27:00,
2013-09-08 08:32:00,53.1,45.0,0.00,ENE,64,0.0,0.0,74,0.00,,---,0.00,VWS V14.01,2013-09-08 12:32:00,
2013-09-08 08:37:00,53.1,45.0,0.00,ESE,102,0.0,0.0,74,0.00,,---,0.00,VWS V14.01,2013-09-08 12:37:00,
2013-09-08 08:42:00,53.1,45.0,0.00,ESE,112,0.0,0.0,74,0.00,,---,0.00,VWS V14.01,2013-09-08 12:42:00,
2013-09-08 08:47:00,53.1,45.0,0.00,North,11,0.0,0.0,74,0.00,,---,0.00,VWS V14.01,2013-09-08 12:47:00,
2013-09-08 08:52:00,53.1,45.0,0.00,SSW,207,0.0,0.0,74,0.00,,---,0.00,VWS V14.01,2013-09-08 12:52:00,
2013-09-08 08:57:00,53.1,45.0,0.00,SSW,197,3.6,3.6,74,0.00,,---,0.00,VWS V14.01,2013-09-08 12:57:00,
2013-09-08 09:02:00,53.1,45.0,0.00,East,96,0.0,0.0,74,0.00,,---,0.00,VWS V14.01,2013-09-08 13:02:00,
2013-09-08 09:07:00,53.1,45.0,0.00,SSE,149,0.0,0.0,74,0.00,,---,0.00,VWS V14.01,2013-09-08 13:07:00,
2013-09-08 09:12:00,52.9,44.5,0.00,SE,143,0.0,0.0,73,0.00,,---,0.00,VWS V14.01,2013-09-08 13:12:00,
2013-09-08 09:17:00,52.5,44.1,0.00,WSW,246,2.7,2.7,73,0.00,,---,0.00,VWS V14.01,2013-09-08 13:17:00,
2013-09-08 09:22:00,52.5,43.4,0.00,WSW,247,0.0,0.0,71,0.00,,---,0.00,VWS V14.01,2013-09-08 13:22:00,
2013-09-08 09:27:00,52.3,42.9,0.00,NW,319,0.0,0.0,70,0.00,,---,0.00,VWS V14.01,2013-09-08 13:27:00,
2013-09-08 09:32:00,52.2,42.3,0.00,NNW,345,0.0,0.0,69,0.00,,---,0.00,VWS V14.01,2013-09-08 13:32:00,
2013-09-08 09:37:00,52.2,41.9,0.00,ENE,75,0.0,2.2,68,0.00,,---,0.00,VWS V14.01,2013-09-08 13:37:00,
2013-09-08 09:42:00,52.2,41.9,0.00,ENE,76,3.1,3.1,68,0.00,,---,0.00,VWS V14.01,2013-09-08 13:42:00,
2013-09-08 09:47:00,52.5,41.9,0.00,SW,225,0.0,0.0,67,0.00,,---,0.00,VWS V14.01,2013-09-08 13:47:00,
2013-09-08 09:52:00,52.5,41.5,0.00,West,274,2.2,2.2,66,0.00,,---,0.00,VWS V14.01,2013-09-08 13:52:00,
2013-09-08 09:57:00,52.3,40.9,0.00,North,357,0.0,0.0,65,0.00,,---,0.00,VWS V14.01,2013-09-08 13:57:00,
2013-09-08 10:02:00,52.5,39.5,0.00,NW,315,4.9,4.9,61,0.00,,---,0.00,VWS V14.01,2013-09-08 14:02:00,
2013-09-08 10:07:00,52.7,39.2,0.00,North,9,0.0,0.0,60,0.00,,---,0.00,VWS V14.01,2013-09-08 14:07:00,
2013-09-08 10:12:00,52.9,37.6,0.00,East,98,2.2,2.2,56,0.00,,---,0.00,VWS V14.01,2013-09-08 14:12:00,
2013-09-08 10:17:00,52.5,35.9,0.00,WNW,301,2.7,2.7,53,0.00,,---,0.00,VWS V14.01,2013-09-08 14:17:00,
2013-09-08 10:22:00,52.9,36.2,0.00,SE,137,0.0,0.0,53,0.00,,---,0.00,VWS V14.01,2013-09-08 14:22:00,
2013-09-08 10:27:00,53.1,36.4,0.00,NNW,346,0.0,0.0,53,0.00,,---,0.00,VWS V14.01,2013-09-08 14:27:00,
2013-09-08 10:32:00,53.1,36.4,0.00,ENE,71,0.0,0.0,53,0.00,,---,0.00,VWS V14.01,2013-09-08 14:32:00,
2013-09-08 10:37:00,53.1,35.9,0.00,East,87,0.0,2.2,52,0.00,,---,0.00,VWS V14.01,2013-09-08 14:37:00,
2013-09-08 10:42:00,53.2,36.1,0.00,West,265,3.6,3.6,52,0.00,,---,0.00,VWS V14.01,2013-09-08 14:42:00,
2013-09-08 10:47:00,53.4,35.8,0.00,WNW,300,0.0,0.0,51,0.00,,---,0.00,VWS V14.01,2013-09-08 14:47:00,
2013-09-08 10:52:00,53.6,35.9,0.00,South,173,0.0,0.0,51,0.00,,---,0.00,VWS V14.01,2013-09-08 14:52:00,
2013-09-08 10:57:00,53.6,35.4,0.00,North,0,0.0,2.2,50,0.00,,---,0.00,VWS V14.01,2013-09-08 14:57:00,
2013-09-08 11:02:00,53.6,35.4,0.00,WSW,247,0.0,0.0,50,0.00,,---,0.00,VWS V14.01,2013-09-08 15:02:00,
2013-09-08 11:07:00,53.6,34.9,0.00,SE,134,0.0,0.0,49,0.00,,---,0.00,VWS V14.01,2013-09-08 15:07:00,
2013-09-08 11:12:00,53.8,34.6,0.00,NNW,328,3.1,3.6,48,0.00,,---,0.00,VWS V14.01,2013-09-08 15:12:00,
2013-09-08 11:17:00,54.1,34.9,0.00,NNW,334,4.0,4.0,48,0.00,,---,0.00,VWS V14.01,2013-09-08 15:17:00,
2013-09-08 11:22:00,54.7,34.9,0.00,ESE,105,4.0,4.0,47,0.00,,---,0.00,VWS V14.01,2013-09-08 15:22:00,
2013-09-08 11:27:00,54.9,34.5,0.00,WNW,284,0.0,0.0,46,0.00,,---,0.00,VWS V14.01,2013-09-08 15:27:00,
2013-09-08 11:32:00,55.0,33.0,0.00,North,0,2.2,2.2,43,0.00,,---,0.00,VWS V14.01,2013-09-08 15:32:00,
2013-09-08 11:37:00,55.8,33.6,0.00,WNW,295,0.0,5.8,43,0.00,,---,0.00,VWS V14.01,2013-09-08 15:37:00,
2013-09-08 11:42:00,56.1,33.4,0.00,NW,323,3.1,3.1,42,0.00,,---,0.00,VWS V14.01,2013-09-08 15:42:00,
2013-09-08 11:47:00,56.1,33.4,0.00,West,281,0.0,2.2,42,0.00,,---,0.00,VWS V14.01,2013-09-08 15:47:00,
2013-09-08 11:52:00,56.1,32.2,0.00,NE,40,0.0,0.0,40,0.00,,---,0.00,VWS V14.01,2013-09-08 15:52:00,
2013-09-08 11:57:00,55.9,31.4,0.00,WSW,250,2.7,2.7,39,0.00,,---,0.00,VWS V14.01,2013-09-08 15:57:00,
2013-09-08 12:02:00,55.9,32.0,0.00,SSW,192,0.0,0.0,40,0.00,,---,0.00,VWS V14.01,2013-09-08 16:02:00,
2013-09-08 12:07:00,55.8,31.2,0.00,West,261,3.6,3.6,39,0.00,,---,0.00,VWS V14.01,2013-09-08 16:07:00,
2013-09-08 12:12:00,55.8,31.8,0.00,North,0,4.9,4.9,40,0.00,,---,0.00,VWS V14.01,2013-09-08 16:12:00,
2013-09-08 12:17:00,56.3,32.9,0.00,WNW,287,8.3,8.3,41,0.00,,---,0.00,VWS V14.01,2013-09-08 16:17:00,
2013-09-08 12:22:00,56.7,33.2,0.00,ENE,60,3.1,4.9,41,0.00,,---,0.00,VWS V14.01,2013-09-08 16:22:00,
2013-09-08 12:27:00,56.7,32.6,0.00,NNW,339,0.0,0.0,40,0.00,,---,0.00,VWS V14.01,2013-09-08 16:27:00,
2013-09-08 12:32:00,57.2,32.5,0.00,West,276,0.0,0.0,39,0.00,,---,0.00,VWS V14.01,2013-09-08 16:32:00,
2013-09-08 12:37:00,58.5,34.9,0.00,WSW,248,5.4,5.4,41,0.00,,---,0.00,VWS V14.01,2013-09-08 16:37:00,
2013-09-08 12:42:00,59.4,35.1,0.00,WSW,249,0.0,0.0,40,0.00,,---,0.00,VWS V14.01,2013-09-08 16:42:00,
2013-09-08 12:47:00,60.3,34.6,0.00,WNW,303,6.3,6.3,38,0.00,,---,0.00,VWS V14.01,2013-09-08 16:47:00,
2013-09-08 12:52:00,60.8,34.4,0.00,South,191,0.0,0.0,37,0.00,,---,0.00,VWS V14.01,2013-09-08 16:52:00,
2013-09-08 12:57:00,61.2,34.7,0.00,NNW,337,2.7,2.7,37,0.00,,---,0.00,VWS V14.01,2013-09-08 16:57:00,
2013-09-08 13:02:00,60.4,33.4,0.00,South,179,2.7,2.7,36,0.00,,---,0.00,VWS V14.01,2013-09-08 17:02:00,
2013-09-08 13:07:00,59.7,32.7,0.00,North,6,0.0,0.0,36,0.00,,---,0.00,VWS V14.01,2013-09-08 17:07:00,
2013-09-08 13:12:00,59.4,33.1,0.00,NNW,342,0.0,0.0,37,0.00,,---,0.00,VWS V14.01,2013-09-08 17:12:00,
2013-09-08 13:17:00,59.5,33.3,0.00,WSW,245,4.5,4.5,37,0.00,,---,0.00,VWS V14.01,2013-09-08 17:17:00,
2013-09-08 13:22:00,59.5,32.6,0.00,NW,310,0.0,2.2,36,0.00,,---,0.00,VWS V14.01,2013-09-08 17:22:00,
2013-09-08 13:27:00,58.8,32.6,0.00,SW,227,0.0,0.0,37,0.00,,---,0.00,VWS V14.01,2013-09-08 17:27:00,
2013-09-08 13:32:00,58.5,32.3,0.00,SW,227,0.0,0.0,37,0.00,,---,0.00,VWS V14.01,2013-09-08 17:32:00,
2013-09-08 13:37:00,57.9,31.8,0.00,NW,304,0.0,2.7,37,0.00,,---,0.00,VWS V14.01,2013-09-08 17:37:00,
2013-09-08 13:42:00,59.0,32.8,0.00,NW,316,3.1,3.1,37,0.00,,---,0.00,VWS V14.01,2013-09-08 17:42:00,
2013-09-08 13:47:00,59.2,32.3,0.00,NW,305,2.2,2.2,36,0.00,,---,0.00,VWS V14.01,2013-09-08 17:47:00,
2013-09-08 13:52:00,59.0,32.1,0.00,NNW,336,0.0,0.0,36,0.00,,---,0.00,VWS V14.01,2013-09-08 17:52:00,
2013-09-08 13:57:00,58.8,32.6,0.00,North,0,3.6,3.6,37,0.00,,---,0.00,VWS V14.01,2013-09-08 17:57:00,
2013-09-08 14:02:00,59.0,32.1,0.00,NNW,332,3.1,3.1,36,0.00,,---,0.00,VWS V14.01,2013-09-08 18:02:00,
2013-09-08 14:07:00,59.2,32.3,0.00,SE,126,3.6,3.6,36,0.00,,---,0.00,VWS V14.01,2013-09-08 18:07:00,
2013-09-08 14:12:00,59.5,32.6,0.00,West,261,2.7,4.0,36,0.00,,---,0.00,VWS V14.01,2013-09-08 18:12:00,
2013-09-08 14:17:00,59.9,32.2,0.00,West,266,2.7,2.7,35,0.00,,---,0.00,VWS V14.01,2013-09-08 18:17:00,
2013-09-08 14:22:00,59.9,32.2,0.00,ESE,120,5.4,5.4,35,0.00,,---,0.00,VWS V14.01,2013-09-08 18:22:00,
2013-09-08 14:27:00,59.4,31.7,0.00,SW,215,3.6,3.6,35,0.00,,---,0.00,VWS V14.01,2013-09-08 18:27:00,
2013-09-08 14:32:00,59.4,31.7,0.00,NNE,29,2.7,2.7,35,0.00,,---,0.00,VWS V14.01,2013-09-08 18:32:00,
2013-09-08 14:37:00,59.9,32.2,0.00,North,353,2.2,2.2,35,0.00,,---,0.00,VWS V14.01,2013-09-08 18:37:00,
2013-09-08 14:42:00,59.2,31.6,0.00,NW,309,3.1,3.1,35,0.00,,---,0.00,VWS V14.01,2013-09-08 18:42:00,
2013-09-08 14:47:00,59.4,31.7,0.00,NNW,329,3.6,3.6,35,0.00,,---,0.00,VWS V14.01,2013-09-08 18:47:00,
2013-09-08 14:52:00,59.7,32.0,0.00,South,179,4.0,4.0,35,0.00,,---,0.00,VWS V14.01,2013-09-08 18:52:00,
2013-09-08 14:57:00,59.9,32.2,0.00,WSW,258,2.7,2.7,35,0.00,,---,0.00,VWS V14.01,2013-09-08 18:57:00,
2013-09-08 15:02:00,59.9,31.5,0.00,WSW,256,2.2,2.2,34,0.00,,---,0.00,VWS V14.01,2013-09-08 19:02:00,
2013-09-08 15:07:00,60.1,32.4,0.00,South,191,3.1,4.0,35,0.00,,---,0.00,VWS V14.01,2013-09-08 19:07:00,
2013-09-08 15:12:00,60.4,32.7,0.00,North,353,2.7,2.7,35,0.00,,---,0.00,VWS V14.01,2013-09-08 19:12:00,
2013-09-08 15:17:00,60.8,32.3,0.00,SSW,201,0.0,0.0,34,0.00,,---,0.00,VWS V14.01,2013-09-08 19:17:00,
2013-09-08 15:22:00,61.2,33.3,0.00,SE,124,0.0,0.0,35,0.00,,---,0.00,VWS V14.01,2013-09-08 19:22:00,
2013-09-08 15:27:00,61.0,32.4,0.00,SW,220,2.7,2.7,34,0.00,,---,0.00,VWS V14.01,2013-09-08 19:27:00,
2013-09-08 15:32:00,61.0,32.4,0.00,WSW,247,2.7,3.1,34,0.00,,---,0.00,VWS V14.01,2013-09-08 19:32:00,
2013-09-08 15:37:00,60.8,32.3,0.00,ESE,112,3.1,3.1,34,0.00,,---,0.00,VWS V14.01,2013-09-08 19:37:00,
2013-09-08 15:42:00,60.4,32.0,0.00,South,170,2.7,2.7,34,0.00,,---,0.00,VWS V14.01,2013-09-08 19:42:00,
2013-09-08 15:47:00,60.3,31.8,0.00,WNW,294,2.7,2.7,34,0.00,,---,0.00,VWS V14.01,2013-09-08 19:47:00,
2013-09-08 15:52:00,59.9,31.5,0.00,SE,124,2.7,3.1,34,0.00,,---,0.00,VWS V14.01,2013-09-08 19:52:00,
2013-09-08 15:57:00,59.5,31.2,0.00,SSE,162,0.0,0.0,34,0.00,,---,0.00,VWS V14.01,2013-09-08 19:57:00,
2013-09-08 16:02:00,59.4,31.0,0.00,SW,215,3.1,3.1,34,0.00,,---,0.00,VWS V14.01,2013-09-08 20:02:00,
2013-09-08 16:07:00,59.0,30.7,0.00,ESE,122,4.0,4.0,34,0.00,,---,0.00,VWS V14.01,2013-09-08 20:07:00,
2013-09-08 16:12:00,59.2,30.9,0.00,ENE,70,0.0,0.0,34,0.00,,---,0.00,VWS V14.01,2013-09-08 20:12:00,
2013-09-08 16:17:00,59.2,30.9,0.00,NW,310,0.0,3.6,34,0.00,,---,0.00,VWS V14.01,2013-09-08 20:17:00,
2013-09-08 16:22:00,59.0,30.7,0.00,NE,56,0.0,0.0,34,0.00,,---,0.00,VWS V14.01,2013-09-08 20:22:00,
2013-09-08 16:27:00,59.0,30.7,0.00,WNW,284,2.7,3.6,34,0.00,,---,0.00,VWS V14.01,2013-09-08 20:27:00,
2013-09-08 16:32:00,59.0,30.7,0.00,West,271,2.2,2.2,34,0.00,,---,0.00,VWS V14.01,2013-09-08 20:32:00,
2013-09-08 16:37:00,58.8,30.5,0.00,WNW,297,0.0,2.7,34,0.00,,---,0.00,VWS V14.01,2013-09-08 20:37:00,
2013-09-08 16:42:00,58.6,30.4,0.00,WNW,297,0.0,0.0,34,0.00,,---,0.00,VWS V14.01,2013-09-08 20:42:00,
2013-09-08 16:47:00,58.3,28.6,0.00,South,184,4.0,4.0,32,0.00,,---,0.00,VWS V14.01,2013-09-08 20:47:00,
2013-09-08 16:52:00,58.1,29.2,0.00,WSW,251,0.0,0.0,33,0.00,,---,0.00,VWS V14.01,2013-09-08 20:52:00,
2013-09-08 16:57:00,58.1,29.2,0.00,SW,228,0.0,0.0,33,0.00,,---,0.00,VWS V14.01,2013-09-08 20:57:00,
2013-09-08 17:02:00,58.1,29.9,0.00,SW,227,2.7,2.7,34,0.00,,---,0.00,VWS V14.01,2013-09-08 21:02:00,
2013-09-08 17:07:00,57.7,29.6,0.00,NW,320,0.0,0.0,34,0.00,,---,0.00,VWS V14.01,2013-09-08 21:07:00,
2013-09-08 17:12:00,57.6,29.4,0.00,NE,42,3.1,3.1,34,0.00,,---,0.00,VWS V14.01,2013-09-08 21:12:00,
2013-09-08 17:17:00,57.6,30.1,0.00,ESE,123,2.2,4.0,35,0.00,,---,0.00,VWS V14.01,2013-09-08 21:17:00,
2013-09-08 17:22:00,57.6,30.1,0.00,WNW,302,2.7,2.7,35,0.00,,---,0.00,VWS V14.01,2013-09-08 21:22:00,
2013-09-08 17:27:00,57.6,30.1,0.00,NW,307,0.0,0.0,35,0.00,,---,0.00,VWS V14.01,2013-09-08 21:27:00,
2013-09-08 17:32:00,57.6,30.1,0.00,West,275,2.2,3.6,35,0.00,,---,0.00,VWS V14.01,2013-09-08 21:32:00,
2013-09-08 17:37:00,57.6,30.1,0.00,East,90,0.0,0.0,35,0.00,,---,0.00,VWS V14.01,2013-09-08 21:37:00,
2013-09-08 17:42:00,57.6,30.8,0.00,West,270,0.0,0.0,36,0.00,,---,0.00,VWS V14.01,2013-09-08 21:42:00,
2013-09-08 17:47:00,57.4,30.7,0.00,NE,42,0.0,0.0,36,0.00,,---,0.00,VWS V14.01,2013-09-08 21:47:00,
2013-09-08 17:52:00,57.2,30.5,0.00,SSE,160,2.7,3.1,36,0.00,,---,0.00,VWS V14.01,2013-09-08 21:52:00,
2013-09-08 17:57:00,56.8,30.2,0.00,NNW,338,0.0,3.6,36,0.00,,---,0.00,VWS V14.01,2013-09-08 21:57:00,
2013-09-08 18:02:00,56.5,30.5,0.00,ENE,68,2.7,2.7,37,0.00,,---,0.00,VWS V14.01,2013-09-08 22:02:00,
2013-09-08 18:07:00,56.1,29.5,0.00,SE,139,0.0,0.0,36,0.00,,---,0.00,VWS V14.01,2013-09-08 22:07:00,
2013-09-08 18:12:00,55.8,29.2,0.00,West,264,0.0,0.0,36,0.00,,---,0.00,VWS V14.01,2013-09-08 22:12:00,
2013-09-08 18:17:00,55.4,28.9,0.00,NNW,342,4.0,4.0,36,0.00,,---,0.00,VWS V14.01,2013-09-08 22:17:00,
2013-09-08 18:22:00,54.9,29.1,0.00,ESE,111,0.0,0.0,37,0.00,,---,0.00,VWS V14.01,2013-09-08 22:22:00,
2013-09-08 18:27:00,54.7,28.9,0.00,NW,326,6.3,6.3,37,0.00,,---,0.00,VWS V14.01,2013-09-08 22:27:00,
2013-09-08 18:32:00,54.5,29.4,0.00,NNW,341,4.0,4.0,38,0.00,,---,0.00,VWS V14.01,2013-09-08 22:32:00,
2013-09-08 18:37:00,54.3,29.3,0.00,West,266,2.7,2.7,38,0.00,,---,0.00,VWS V14.01,2013-09-08 22:37:00,
2013-09-08 18:42:00,54.1,29.1,0.00,NW,317,0.0,0.0,38,0.00,,---,0.00,VWS V14.01,2013-09-08 22:42:00,
2013-09-08 18:47:00,53.8,28.8,0.00,NNW,330,0.0,0.0,38,0.00,,---,0.00,VWS V14.01,2013-09-08 22:47:00,
2013-09-08 18:52:00,53.8,29.4,0.00,SSE,161,2.7,2.7,39,0.00,,---,0.00,VWS V14.01,2013-09-08 22:52:00,
2013-09-08 18:57:00,53.6,29.3,0.00,ENE,64,0.0,0.0,39,0.00,,---,0.00,VWS V14.01,2013-09-08 22:57:00,
2013-09-08 19:02:00,53.4,29.1,0.00,WNW,287,0.0,0.0,39,0.00,,---,0.00,VWS V14.01,2013-09-08 23:02:00,
2013-09-08 19:07:00,53.4,29.1,0.00,West,263,0.0,0.0,39,0.00,,---,0.00,VWS V14.01,2013-09-08 23:07:00,
2013-09-08 19:12:00,53.2,28.9,0.00,West,263,0.0,0.0,39,0.00,,---,0.00,VWS V14.01,2013-09-08 23:12:00,
2013-09-08 19:17:00,53.1,28.8,0.00,WSW,250,0.0,0.0,39,0.00,,---,0.00,VWS V14.01,2013-09-08 23:17:00,
2013-09-08 19:22:00,53.1,29.4,0.00,WSW,247,0.0,0.0,40,0.00,,---,0.00,VWS V14.01,2013-09-08 23:22:00,
2013-09-08 19:27:00,52.9,29.2,0.00,WSW,247,0.0,0.0,40,0.00,,---,0.00,VWS V14.01,2013-09-08 23:27:00,
2013-09-08 19:32:00,52.7,29.1,0.00,WSW,248,0.0,0.0,40,0.00,,---,0.00,VWS V14.01,2013-09-08 23:32:00,
2013-09-08 19:37:00,52.2,28.6,0.00,WNW,302,0.0,0.0,40,0.00,,---,0.00,VWS V14.01,2013-09-08 23:37:00,
2013-09-08 19:42:00,52.2,28.6,0.00,WSW,241,0.0,0.0,40,0.00,,---,0.00,VWS V14.01,2013-09-08 23:42:00,
2013-09-08 19:47:00,52.0,28.4,0.00,WSW,241,0.0,0.0,40,0.00,,---,0.00,VWS V14.01,2013-09-08 23:47:00,
2013-09-08 19:52:00,52.0,28.4,0.00,SW,232,0.0,0.0,40,0.00,,---,0.00,VWS V14.01,2013-09-08 23:52:00,
2013-09-08 19:57:00,51.8,28.3,0.00,WNW,302,3.1,3.1,40,0.00,,---,0.00,VWS V14.01,2013-09-08 23:57:00,
2013-09-08 20:02:00,51.8,28.3,0.00,WNW,302,0.0,0.0,40,0.00,,---,0.00,VWS V14.01,2013-09-09 00:02:00,
2013-09-08 20:07:00,51.8,28.3,0.00,WNW,302,0.0,0.0,40,0.00,,---,0.00,VWS V14.01,2013-09-09 00:07:00,
2013-09-08 20:12:00,51.6,28.7,0.00,WNW,290,0.0,0.0,41,0.00,,---,0.00,VWS V14.01,2013-09-09 00:12:00,
2013-09-08 20:17:00,51.6,28.7,0.00,WNW,290,0.0,0.0,41,0.00,,---,0.00,VWS V14.01,2013-09-09 00:17:00,
2013-09-08 20:22:00,51.6,28.7,0.00,WNW,290,0.0,0.0,41,0.00,,---,0.00,VWS V14.01,2013-09-09 00:22:00,
2013-09-08 20:27:00,51.1,28.8,0.00,WNW,290,0.0,0.0,42,0.00,,---,0.00,VWS V14.01,2013-09-09 00:27:00,
2013-09-08 20:32:00,50.9,29.2,0.00,WNW,290,0.0,0.0,43,0.00,,---,0.00,VWS V14.01,2013-09-09 00:32:00,
2013-09-08 20:37:00,50.7,29.6,0.00,WNW,290,0.0,0.0,44,0.00,,---,0.00,VWS V14.01,2013-09-09 00:37:00,
2013-09-08 20:42:00,50.4,29.3,0.00,WNW,290,0.0,0.0,44,0.00,,---,0.00,VWS V14.01,2013-09-09 00:42:00,
2013-09-08 20:47:00,50.0,29.5,0.00,WNW,290,0.0,0.0,45,0.00,,---,0.00,VWS V14.01,2013-09-09 00:47:00,
2013-09-08 20:52:00,49.6,30.2,0.00,WNW,290,0.0,0.0,47,0.00,,---,0.00,VWS V14.01,2013-09-09 00:52:00,
2013-09-08 20:57:00,49.1,29.8,0.00,WNW,290,0.0,0.0,47,0.00,,---,0.00,VWS V14.01,2013-09-09 00:57:00,
2013-09-08 21:02:00,48.7,29.4,0.00,WNW,290,0.0,0.0,47,0.00,,---,0.00,VWS V14.01,2013-09-09 01:02:00,
2013-09-08 21:07:00,48.6,29.8,0.00,WNW,290,0.0,0.0,48,0.00,,---,0.00,VWS V14.01,2013-09-09 01:07:00,
2013-09-08 21:12:00,48.2,29.5,0.00,WNW,290,0.0,0.0,48,0.00,,---,0.00,VWS V14.01,2013-09-09 01:12:00,
2013-09-08 21:17:00,47.8,29.6,0.00,WNW,290,0.0,0.0,49,0.00,,---,0.00,VWS V14.01,2013-09-09 01:17:00,
2013-09-08 21:22:00,47.7,29.5,0.00,WNW,290,0.0,0.0,49,0.00,,---,0.00,VWS V14.01,2013-09-09 01:22:00,
2013-09-08 21:27:00,47.3,29.6,0.00,WNW,290,0.0,0.0,50,0.00,,---,0.00,VWS V14.01,2013-09-09 01:27:00,
2013-09-08 21:32:00,47.3,29.6,0.00,WNW,290,0.0,0.0,50,0.00,,---,0.00,VWS V14.01,2013-09-09 01:32:00,
2013-09-08 21:37:00,46.9,29.3,0.00,WNW,290,0.0,0.0,50,0.00,,---,0.00,VWS V14.01,2013-09-09 01:37:00,
2013-09-08 21:42:00,46.8,29.6,0.00,WNW,290,0.0,0.0,51,0.00,,---,0.00,VWS V14.01,2013-09-09 01:42:00,
2013-09-08 21:47:00,46.4,29.3,0.00,WNW,290,0.0,0.0,51,0.00,,---,0.00,VWS V14.01,2013-09-09 01:47:00,
2013-09-08 21:52:00,46.2,29.6,0.00,WNW,290,0.0,0.0,52,0.00,,---,0.00,VWS V14.01,2013-09-09 01:52:00,
2013-09-08 21:57:00,46.2,29.6,0.00,WNW,290,0.0,0.0,52,0.00,,---,0.00,VWS V14.01,2013-09-09 01:57:00,
2013-09-08 22:02:00,46.0,29.9,0.00,WNW,290,0.0,0.0,53,0.00,,---,0.00,VWS V14.01,2013-09-09 02:02:00,
2013-09-08 22:07:00,46.0,29.9,0.00,WNW,290,0.0,0.0,53,0.00,,---,0.00,VWS V14.01,2013-09-09 02:07:00,
2013-09-08 22:12:00,45.9,29.7,0.00,WNW,290,0.0,0.0,53,0.00,,---,0.00,VWS V14.01,2013-09-09 02:12:00,
2013-09-08 22:17:00,45.7,29.5,0.00,WNW,290,0.0,0.0,53,0.00,,---,0.00,VWS V14.01,2013-09-09 02:17:00,
2013-09-08 22:22:00,45.3,29.2,0.00,WNW,290,0.0,0.0,53,0.00,,---,0.00,VWS V14.01,2013-09-09 02:22:00,
2013-09-08 22:27:00,45.1,29.0,0.00,WNW,290,0.0,0.0,53,0.00,,---,0.00,VWS V14.01,2013-09-09 02:27:00,
2013-09-08 22:32:00,45.1,29.5,0.00,WNW,290,0.0,0.0,54,0.00,,---,0.00,VWS V14.01,2013-09-09 02:32:00,
2013-09-08 22:37:00,45.0,29.3,0.00,WNW,290,0.0,0.0,54,0.00,,---,0.00,VWS V14.01,2013-09-09 02:37:00,
2013-09-08 22:42:00,44.8,29.2,0.00,WNW,290,0.0,0.0,54,0.00,,---,0.00,VWS V14.01,2013-09-09 02:42:00,
2013-09-08 22:47:00,44.6,29.0,0.00,WNW,290,0.0,0.0,54,0.00,,---,0.00,VWS V14.01,2013-09-09 02:47:00,
2013-09-08 22:52:00,44.2,29.1,0.00,WNW,290,0.0,0.0,55,0.00,,---,0.00,VWS V14.01,2013-09-09 02:52:00,
2013-09-08 22:57:00,44.2,29.1,0.00,WNW,290,0.0,0.0,55,0.00,,---,0.00,VWS V14.01,2013-09-09 02:57:00,
2013-09-08 23:02:00,44.1,29.4,0.00,WNW,290,0.0,0.0,56,0.00,,---,0.00,VWS V14.01,2013-09-09 03:02:00,
2013-09-08 23:07:00,43.9,29.2,0.00,WNW,290,0.0,0.0,56,0.00,,---,0.00,VWS V14.01,2013-09-09 03:07:00,
2013-09-08 23:12:00,43.7,29.0,0.00,WNW,290,0.0,0.0,56,0.00,,---,0.00,VWS V14.01,2013-09-09 03:12:00,
2013-09-08 23:17:00,43.7,29.0,0.00,WNW,290,0.0,0.0,56,0.00,,---,0.00,VWS V14.01,2013-09-09 03:17:00,
2013-09-08 23:22:00,43.5,28.9,0.00,WNW,290,0.0,0.0,56,0.00,,---,0.00,VWS V14.01,2013-09-09 03:22:00,
2013-09-08 23:27:00,43.3,28.7,0.00,WNW,290,0.0,0.0,56,0.00,,---,0.00,VWS V14.01,2013-09-09 03:27:00,
2013-09-08 23:32:00,43.3,28.7,0.00,WNW,290,0.0,0.0,56,0.00,,---,0.00,VWS V14.01,2013-09-09 03:32:00,
2013-09-08 23:37:00,43.2,28.5,0.00,WNW,290,0.0,0.0,56,0.00,,---,0.00,VWS V14.01,2013-09-09 03:37:00,
2013-09-08 23:42:00,43.0,28.8,0.00,WNW,290,0.0,0.0,57,0.00,,---,0.00,VWS V14.01,2013-09-09 03:42:00,
2013-09-08 23:47:00,42.8,28.6,0.00,WNW,290,0.0,0.0,57,0.00,,---,0.00,VWS V14.01,2013-09-09 03:47:00,
2013-09-08 23:52:00,42.6,28.5,0.00,WNW,290,0.0,0.0,57,0.00,,---,0.00,VWS V14.01,2013-09-09 03:52:00,
2013-09-08 23:57:00,42.6,28.5,0.00,WNW,290,0.0,0.0,57,0.00,,---,0.00,VWS V14.01,2013-09-09 03:57:00,